Aduana, Mexico

8:00 PM on January 19, 2018 (GMT +0000)
Aduana

Weather History for 76590 - September, 2013

Change the Weather History Date:

Friday, September 13, 2013

  Actual Average Record
Temperature  
Mean Temperature 80 °F -  
Max Temperature 84 °F 88 °F - ()
Min Temperature 75 °F 73 °F - ()
Cooling Degree Days 14    
Growing Degree Days 30 (Base 50)    
Moisture  
Dew Point 75 °F    
Average Humidity 90    
Maximum Humidity 100    
Minimum Humidity 74    
Precipitation  
Precipitation 2.10 in - - ()
Sea Level Pressure  
Sea Level Pressure 29.80 in    
Wind  
Wind Speed 7 mph ()    
Max Wind Speed 14 mph    
Max Gust Speed -    
Visibility 5.4 miles    
Events Rain    
T = Trace of Precipitation, MM = Missing Value Source: Averaged Metar Reports

Daily Weather History Graph

Daily Weather History Graph

Search for Another Location

Airport or City:

Trip Planner

Search our weather history database for the weather conditions in past years. The results will help you decide how hot, cold, wet, or windy it might be!

Date:

Astronomy

Sep. 13, 2013 Rise Set
Actual Time 11:34 AM UTC 11:52 PM UTC
Civil Twilight 11:11 AM UTC 12:14 AM UTC
Nautical Twilight 10:46 AM UTC 12:40 AM UTC
Astronomical Twilight 10:19 AM UTC 1:06 AM UTC
Moon 7:10 PM UTC (9/13) 5:35 AM UTC (9/13)
Length of Visible Light 13h 02m
Length of Day
12h 17m
First Quarter, 59% of the Moon is Illuminated
Sep 13
First Quarter
Sep 19
Full
Sep 27
Last Quarter
Oct 5
New
Oct 11
First Quarter

Hourly Weather History & Observations

Time (GMT) Temp. Heat Index Dew Point Humidity Pressure Visibility Wind Dir Wind Speed Gust Speed Precip Events Conditions
12:45 AM 78.8 °F - 75.2 °F 89% 29.81 in 6.0 mi ESE 5.8 mph - N/A   Overcast
1:40 AM 78.8 °F - 75.2 °F 89% 29.83 in 6.0 mi East 8.1 mph - N/A   Mostly Cloudy
2:48 AM 78.8 °F - 75.2 °F 89% 29.83 in 6.0 mi East 6.9 mph - N/A   Mostly Cloudy
3:47 AM 78.8 °F - 75.2 °F 89% 29.85 in 6.0 mi ESE 6.9 mph - N/A   Mostly Cloudy
4:46 AM 77.0 °F - 75.2 °F 94% 29.86 in 5.0 mi SE 13.8 mph - N/A Rain Light Rain
5:45 AM 75.2 °F - 75.2 °F 100% 29.83 in 4.0 mi ESE 9.2 mph - N/A Rain Light Rain
6:44 AM 75.2 °F - 75.2 °F 100% 29.80 in 4.0 mi ESE 8.1 mph - N/A Rain Light Rain
7:43 AM 75.2 °F - 75.2 °F 100% 29.80 in 5.0 mi ESE 9.2 mph - N/A Rain Light Rain
8:46 AM 75.2 °F - 73.4 °F 94% 29.78 in 6.0 mi ESE 5.8 mph - N/A Rain Light Rain
9:45 AM 75.2 °F - 73.4 °F 94% 29.79 in 6.0 mi ESE 8.1 mph - N/A   Overcast
10:44 AM 75.2 °F - 73.4 °F 94% 29.80 in 5.0 mi ESE 10.4 mph - N/A   Overcast
11:43 AM 78.8 °F - 75.2 °F 89% 29.81 in 6.0 mi ESE 5.8 mph - N/A   Overcast
12:44 PM 77.0 °F - 75.2 °F 94% 29.82 in 6.0 mi NW 4.6 mph - N/A   Overcast
1:42 PM 77.0 °F - 75.2 °F 94% 29.83 in 6.0 mi NW 3.5 mph - N/A   Overcast
2:43 PM 82.4 °F 89.5 °F 75.2 °F 79% 29.84 in 6.0 mi East 5.8 mph - N/A   Overcast
3:42 PM 82.4 °F 89.5 °F 75.2 °F 79% 29.83 in 6.0 mi ESE 9.2 mph - N/A   Overcast
4:43 PM 84.2 °F 92.3 °F 75.2 °F 74% 29.82 in 7.0 mi SE 12.7 mph - N/A   Overcast
5:45 PM 84.2 °F 92.3 °F 75.2 °F 74% 29.80 in 7.0 mi ESE 9.2 mph - N/A   Overcast
6:27 PM 80.6 °F 86.2 °F 75.2 °F 84% 29.79 in 3.0 mi South 13.8 mph - N/A Rain Heavy Rain
6:42 PM 77.0 °F - 73.4 °F 89% 29.79 in 3.0 mi SSE 10.4 mph - N/A Rain Light Rain
6:56 PM 77.0 °F - 73.4 °F 89% 29.78 in 5.0 mi South 9.2 mph - N/A   Overcast
7:42 PM 77.0 °F - 75.2 °F 94% 29.77 in 5.0 mi SSE 2.3 mph - N/A   Overcast
8:44 PM 77.0 °F - 75.2 °F 94% 29.76 in 5.0 mi East 2.3 mph - N/A   Overcast
9:43 PM 77.0 °F - 75.2 °F 94% 29.74 in 5.0 mi East 4.6 mph - N/A   Overcast
10:40 PM 77.0 °F - 73.4 °F 89% 29.75 in 5.0 mi East 5.8 mph - N/A   Overcast
11:42 PM 77.0 °F - 73.4 °F 89% 29.78 in 6.0 mi ESE 12.7 mph - N/A   Overcast